244P/Scotti (2022)

Japanese version
Home page
Updated on March 27, 2023

---------------------------------------------------------------------

* Profile

* Pictures

* Orbital Elements

Epoch 2023 Feb. 25.0 TT = JDT 2460000.5
T 2022 Nov. 17.46487 TT                                 Rudenko
q   3.9204323            (2000.0)            P               Q
n   0.09095484     Peri.   93.13390     +0.05000630     -0.99874039
a   4.8968732      Node   353.99509     +0.89996440     +0.04685045
e   0.1994009      Incl.    2.25932     +0.43308596     +0.01796311
P  10.8
>From 1751 observations 2000 Nov. 29-2023 Mar. 18, mean residual 0".7.
     Nongravitational parameters A1 = +0.07, A2 = -0.0148.

* Magnitudes Graph

        m1 = 3.0 + 5 log d + 20.0 log r(t - 100)

---------------------------------------------------------------------

The orbital elements are published on M.P.E.C. 2023-F81.
The magnitudes graphs are made with Comet for Windows.

---------------------------------------------------------------------

Copyright(C) Seiichi Yoshida (comet@aerith.net). All rights reserved.